Torna al catalogo

SAUDICOMSAT 1

AttivoComunicazioniSSO
NORAD 28369·PAYLOAD·🇸🇦 Saudi Arabia

Lanciato Jun 29, 2004 da Baikonur Cosmodrome

Loading…

Prossimi Passaggi (prossime 24 ore)

TLE

AggiornatoSource: Space-Track

Epoca: Sep 13, 2026, 13:26 UTC

1 28369U 04025D   26256.55986449  .00000224  00000-0  62347-4 0  9994
2 28369  98.5791 269.0880 0033251 112.0340 248.4394 14.55525289176988

Traccia SAUDICOMSAT 1 in tempo reale con AllMySat

Download on the App Store